This demonstration page uses our WeatherBlox Daily Observations layout. Learn more.

Left ArrowRight Arrow

Hourly Observations for July 25, 2016

Temp ( °F °C ) Dew Point ( °F °C ) Humidity (%) Winds ( mph kmh ) Pressure ( in mb ) Visibility ( mi km ) Precip ( " mm )
12:15 am 00:15 Clear 69 20.5 64 17.8 85 85 ENE 6 9 30.06 1018 10 16 N/A
12:35 am 00:35 Clear 68 20.2 64 18 87 87 ENE 5 7 30.03 1017 10 16 N/A
12:55 am 00:55 Clear 68 20.1 64 18 88 88 NE 6 9 30.06 1018 10 16 N/A
1:15 am 01:15 Clear 68 20.2 64 18 87 87 NE 7 11 30.06 1018 10 16 N/A
1:35 am 01:35 Clear 68 20.1 64 18 88 88 ENE 6 9 30.03 1017 10 16 N/A
1:55 am 01:55 Clear 68 20 64 17.5 86 86 ENE 3 6 30.03 1017 10 16 N/A
2:15 am 02:15 Clear 67 19.6 63 17.3 87 87 ENE 5 7 30.03 1017 10 16 N/A
2:35 am 02:35 Clear 67 19.3 63 17.2 88 88 NNE 3 6 30.03 1017 10 16 N/A
2:55 am 02:55 Clear 67 19.2 63 17.3 89 89 NNE 5 7 30.03 1017 10 16 N/A
3:15 am 03:15 Partly Cloudy 66 19.1 63 17.3 89 89 N N/A 30.06 1018 10 16 N/A
3:35 am 03:35 Partly Cloudy 66 18.7 63 17.2 91 91 N 3 6 30.06 1018 10 16 N/A
3:55 am 03:55 Partly Cloudy 66 18.7 63 17.1 90 90 N N/A 30.06 1018 10 16 N/A
4:15 am 04:15 Partly Cloudy 65 18.5 63 17 91 91 N N/A 30.06 1018 10 16 N/A
4:35 am 04:35 Clear 65 18.1 62 16.8 92 92 NE 3 6 30.06 1018 10 16 N/A
4:55 am 04:55 Clear 65 18.1 62 16.7 92 92 N N/A 30.06 1018 10 16 N/A
5:15 am 05:15 Clear 65 18.1 62 16.6 91 91 E 3 6 30.06 1018 10 16 N/A
5:35 am 05:35 Clear 64 18 62 16.5 91 91 E 3 6 30.06 1018 10 16 N/A
5:55 am 05:55 Clear 64 18 62 16.5 91 91 N N/A 30.06 1018 10 16 N/A
6:15 am 06:15 Clear 64 17.7 62 16.5 93 93 N N/A 30.06 1018 10 16 N/A
6:35 am 06:35 Mostly Cloudy 64 17.6 62 16.5 93 93 N N/A 30.06 1018 10 16 N/A
6:55 am 06:55 Mostly Cloudy 64 18 63 17 94 94 N N/A 30.06 1018 7 11 N/A
7:15 am 07:15 Partly Cloudy 64 18 62 16.9 93 93 N N/A 30.06 1018 7 11 N/A
7:35 am 07:35 Mostly Cloudy with Mist and Fog 65 18.4 63 17.4 94 94 N N/A 30.09 1019 5 8 N/A
7:55 am 07:55 Mostly Cloudy 66 18.9 64 17.5 92 92 ENE 3 6 30.09 1019 7 11 N/A
8:15 am 08:15 Partly Cloudy 67 19.4 64 17.6 89 89 E 6 9 30.06 1018 10 16 N/A
8:35 am 08:35 Sunny 68 20 64 17.5 86 86 E 8 13 30.06 1018 10 16 N/A
8:55 am 08:55 Partly Cloudy 69 20.8 64 17.5 82 82 E 9 15 30.09 1019 10 16 N/A
9:15 am 09:15 Partly Cloudy 71 21.6 64 17.7 79 79 E 9 15 30.06 1018 10 16 N/A
9:35 am 09:35 Sunny 72 22 64 17.7 77 77 ESE 10 17 30.06 1018 10 16 N/A
9:55 am 09:55 Sunny 73 23 64 17.8 73 73 ESE 12 19 30.06 1018 10 16 N/A
10:15 am 10:15 Sunny 74 23.4 64 18 72 72 E 9 15 30.06 1018 10 16 N/A
10:35 am 10:35 Sunny 75 23.7 64 17.7 69 69 ESE 10 17 30.06 1018 10 16 N/A
10:55 am 10:55 Sunny 76 24.2 65 18.2 69 69 ESE 13 20 30.06 1018 10 16 N/A
11:15 am 11:15 Sunny 76 24.7 64 17.7 65 65 E 9 15 30.03 1017 10 16 N/A
11:35 am 11:35 Sunny 76 24.7 64 17.8 66 66 E 10 17 30.00 1016 10 16 N/A
11:55 am 11:55 Sunny 77 25.2 63 17.4 62 62 E 12 19 30.03 1017 10 16 N/A
12:15 pm 12:15 Sunny 78 25.7 64 17.7 61 61 SE 9 15 30.03 1017 10 16 N/A
12:35 pm 12:35 Sunny 79 25.9 64 17.6 60 60 SE 10 17 30.00 1016 10 16 N/A
12:55 pm 12:55 Sunny 80 26.4 64 17.8 59 59 SE 10 17 30.00 1016 10 16 N/A
1:15 pm 13:15 Sunny 80 26.7 64 17.5 57 57 ESE 12 19 30.00 1016 10 16 N/A
1:35 pm 13:35 Sunny 81 27.3 63 17.3 54 54 SE 10 17 30.00 1016 10 16 N/A
1:55 pm 13:55 Sunny 82 28 63 17 51 51 ESE 13 20 30.00 1016 10 16 N/A
2:15 pm 14:15 Sunny 83 28.1 63 17 51 51 SE 12 19 29.97 1015 10 16 N/A
2:35 pm 14:35 Sunny 83 28.2 61 16.3 48 48 SSE 10 17 29.97 1015 10 16 N/A
2:55 pm 14:55 Sunny 84 28.8 64 17.6 51 51 SSE 10 17 29.97 1015 10 16 N/A
3:15 pm 15:15 Partly Cloudy 84 28.8 64 18 52 52 SE 13 20 29.97 1015 10 16 N/A
3:35 pm 15:35 Partly Cloudy 84 28.9 64 17.6 50 50 SSE 9 15 29.97 1015 10 16 N/A
3:55 pm 15:55 Partly Cloudy 84 29.1 64 17.8 51 51 SSE 7 11 29.94 1014 10 16 N/A
4:15 pm 16:15 Sunny 85 29.2 64 18 51 51 S 9 15 29.94 1014 10 16 N/A
4:35 pm 16:35 Sunny 85 29.3 64 17.7 50 50 SSE 10 17 29.94 1014 10 16 N/A
4:55 pm 16:55 Sunny 85 29.5 64 17.9 50 50 SSE 12 19 29.94 1014 10 16 N/A
5:15 pm 17:15 Sunny 85 29.4 64 17.8 50 50 SSE 12 19 29.91 1013 10 16 N/A
5:35 pm 17:35 Sunny 85 29.5 64 17.6 49 49 SSE 8 13 29.91 1013 10 16 N/A
5:55 pm 17:55 Sunny 84 29.1 64 17.7 50 50 SE 7 11 29.91 1013 10 16 N/A
6:15 pm 18:15 Sunny 84 29.1 63 17.4 49 49 SSE 8 13 29.91 1013 10 16 N/A
6:35 pm 18:35 Sunny 84 28.8 63 17.1 49 49 SSE 9 15 29.91 1013 10 16 N/A
6:55 pm 18:55 Sunny 84 29 63 17 48 48 SSE 7 11 29.91 1013 10 16 N/A
7:15 pm 19:15 Sunny 84 28.7 63 17 49 49 SE 7 11 29.91 1013 10 16 N/A
7:35 pm 19:35 Sunny 83 28.5 62 16.8 49 49 SE 7 11 29.91 1013 10 16 N/A
7:55 pm 19:55 Sunny 82 28 64 17.8 54 54 ESE 6 9 29.91 1013 10 16 N/A
8:15 pm 20:15 Sunny 81 27.3 65 18.4 58 58 SE 6 9 29.94 1014 10 16 N/A
8:35 pm 20:35 Sunny 79 26.3 65 18.5 62 62 SE 5 7 29.97 1015 10 16 N/A
8:55 pm 20:55 Sunny 77 24.9 66 18.9 69 69 ESE 5 7 29.97 1015 10 16 N/A
9:15 pm 21:15 Clear 74 23.5 67 19.2 77 77 ESE 6 9 30.00 1016 10 16 N/A
9:35 pm 21:35 Clear 75 23.7 66 19 75 75 SSE 5 7 30.00 1016 10 16 N/A
9:55 pm 21:55 Clear 73 22.5 66 19 81 81 ESE 7 11 30.00 1016 10 16 N/A
10:15 pm 22:15 Clear 72 22.2 64 17.8 76 76 ESE 8 13 30.03 1017 10 16 N/A
10:35 pm 22:35 Clear 70 21.3 63 17 77 77 ESE 7 11 30.03 1017 10 16 N/A
10:55 pm 22:55 Clear 71 21.7 60 15.6 68 68 ESE 7 11 30.03 1017 10 16 N/A
11:15 pm 23:15 Clear 68 20.1 62 16.5 80 80 ESE 7 11 30.06 1018 10 16 N/A
11:35 pm 23:35 Clear 68 20.2 61 16.3 78 78 SE 5 7 30.06 1018 10 16 N/A
11:55 pm 23:55 Clear 68 20.1 61 15.9 77 77 SSE 5 7 30.06 1018 10 16 N/A

Powered by AerisWeather